Location: Asheville, NC
(35.6000°N, 82.5500°W)
Time: 07:00:10
(UTC-04:00)

Vanguard 1 Rocket - Pass Details

Date: 11 February 2018
Orbit: 652 x 4225 km, 34.3° (Epoch: 20 May)

Event Time Altitude Azimuth Distance (km) Brightness Sun altitude
Rises 21:54:34 0° 195° (SSW) 6,694 11.8 -46.1°
Reaches altitude 10° 21:59:35 10° 184° (S) 6,155 11.4 -47.1°
Enters shadow 22:02:31 16° 177° (S) 5,919 11.3 -47.6°
